Погода в Орландо

США     28°32′04″N   81°24′42″W
темп.,
°C
ветер,
м/с
пор.,
м/с
влажн.,
%
обл.,
%
осадки,
мм/ч
давл.,
гПа
погр.,
м
15 мая, сб
сб1523:00+21ссв611647 0.0 1021728
02:00+20ссв51063100 0.0 1020570
05:00+19ссв4105980 0.0 1020448
08:00+20ссв510583 0.0 1022534
11:00+26св544132 0.0 10221616
14:00+29ссв64292 0.0 10202664
17:00+27св863475 0.0 10202287
20:00+23св68460 0.0 10211101
16 мая, вс
вс1623:00+21св59500 0.0 1022874
02:00+20св38551 0.0 1021659
05:00+19св38598 0.0 1021369
08:00+21св49555 0.0 1022561
11:00+26всв55385 0.0 10231758
14:00+29всв653011 0.0 10222259
17:00+28всв75326 0.0 10202152
20:00+24всв67453 0.0 10211164
17 мая, пн
пн1723:00+21в37544 0.0 1022768
02:00+20всв375960 0.0 1021466
05:00+19всв2664100 0.0 1020233
08:00+21всв3762100 0.0 1022450
11:00+26в464136 0.0 10211696
14:00+30всв55300 0.0 10202293
17:00+29всв76335 0.0 10182273
20:00+25всв67470 0.0 10201140
18 мая, вт
вт1823:00+22в486129 0.0 1021694
02:00+22всв486994 0.0 1020637
05:00+22в27680 0.0 1019496
08:00+22в477424 0.1 1021495
11:00+26в786056 1.0 10221366
14:00+30в773593 1.3 10202389
17:00+29в773732 0.0 10192173
20:00+25в695347 0.0 10201166
19 мая, ср
ср1923:00+23всв6106947 0.0 1021995
02:00+22всв4106899 0.0 1021984
05:00+23всв5957100 0.0 10201452
08:00+23в5860100 0.0 10221318
11:00+27в784624 0.0 10211720
14:00+30в773815 0.0 10202163
17:00+27всв8848100 0.0 10201884
20:00+25всв796082 0.1 10211204